K5VP Weather Reports


time (UTC)temp
F
wind
direction
speed
knots
gust
knots
rain 1hr
in
rain 24hr
in
rain mn
in
humidity
%
barometer
mb
20260510204657 83 219 0.0 0.0 0.00 0.00 0.00 44 1016.6
20260510204021 83 41 0.0 0.0 0.00 0.00 0.00 45 1016.6
20260510203346 83 300 0.0 0.9 0.00 0.00 0.00 45 1016.7
20260510202716 83 214 0.0 0.0 0.00 0.00 0.00 43 1016.8
20260510202041 82 215 0.0 0.0 0.00 0.00 0.00 45 1016.8
20260510201434 82 238 0.0 0.0 0.00 0.00 0.00 50 1016.8
20260510200816 82 229 0.0 0.0 0.00 0.00 0.00 48 1016.9
20260510200201 81 226 0.0 0.0 0.00 0.00 0.00 50 1017.0
20260510195542 81 246 0.0 1.7 0.00 0.00 0.00 45 1017.1
20260510194919 81 49 0.0 2.6 0.00 0.00 0.00 43 1017.1
20260510194311 81 5 0.0 0.0 0.00 0.00 0.00 45 1017.1
20260510193640 82 343 0.0 0.0 0.00 0.00 0.00 45 1017.1
20260510193017 82 23 0.0 0.0 0.00 0.00 0.00 43 1017.0
20260510192349 82 307 0.0 0.0 0.00 0.00 0.00 43 1017.0
20260510191731 82 246 0.0 0.0 0.00 0.00 0.00 49 1017.0
20260510191059 82 203 0.0 0.0 0.00 0.00 0.00 47 1017.0
20260510190446 82 278 0.0 0.0 0.00 0.00 0.00 44 1017.0
20260510185834 82 235 0.0 0.9 0.00 0.00 0.00 46 1017.1
20260510185201 82 240 0.0 0.0 0.00 0.00 0.00 45 1017.1
20260510184548 82 254 0.0 0.0 0.00 0.00 0.00 46 1017.1
20260510183923 81 203 0.0 0.0 0.00 0.00 0.00 47 1017.0
20260510183302 81 195 0.0 2.6 0.00 0.00 0.00 45 1017.0
20260510182638 82 15 0.0 2.6 0.00 0.00 0.00 44 1017.0
20260510182003 82 92 0.0 0.0 0.00 0.00 0.00 45 1017.0
20260510181330 82 205 0.0 0.0 0.00 0.00 0.00 44 1017.0
20260510180713 82 164 0.0 0.0 0.00 0.00 0.00 49 1017.1
20260510180044 82 277 0.0 0.0 0.00 0.00 0.00 46 1017.1
20260510175432 81 166 0.0 1.7 0.00 0.00 0.00 46 1017.3
20260510174756 82 215 0.0 1.7 0.00 0.00 0.00 45 1017.3
20260510174136 81 168 0.0 2.6 0.00 0.00 0.00 45 1017.5
20260510173525 81 238 0.0 2.6 0.00 0.00 0.00 46 1017.5
20260510172918 82 160 0.0 0.0 0.00 0.00 0.00 45 1017.5
20260510172258 82 10 0.0 0.0 0.00 0.00 0.00 47 1017.6
20260510171646 82 293 0.0 2.6 0.00 0.00 0.00 45 1017.6
20260510171130 82 247 0.0 0.0 0.00 0.00 0.00 47 1017.7
20260510170619 82 186 0.0 0.0 0.00 0.00 0.00 46 1017.6
20260510170109 81 284 0.0 1.7 0.00 0.00 0.00 48 1017.6
20260510165557 81 116 0.0 1.7 0.00 0.00 0.00 48 1017.7
20260510165037 81 174 0.0 0.0 0.00 0.00 0.00 50 1017.7
20260510164525 80 281 0.0 0.9 0.00 0.00 0.00 49 1017.7
20260510164017 80 15 0.0 2.6 0.00 0.00 0.00 49 1017.8
20260510163459 80 253 0.0 0.0 0.00 0.00 0.00 52 1017.8
20260510163000 80 92 0.0 0.9 0.00 0.00 0.00 49 1017.8
20260510162507 79 244 0.0 3.5 0.00 0.00 0.00 49 1017.8
20260510162003 79 210 0.0 1.7 0.00 0.00 0.00 50 1017.8
20260510161455 79 295 0.0 3.5 0.00 0.00 0.00 53 1017.8
20260510160937 79 247 0.0 0.0 0.00 0.00 0.00 52 1017.8
20260510160441 79 221 0.0 0.0 0.00 0.00 0.00 55 1017.8
20260510155946 79 234 0.0 0.0 0.00 0.00 0.00 53 1017.8
20260510155443 79 269 0.0 0.9 0.00 0.00 0.00 51 1017.7
20260510154935 79 178 0.0 0.0 0.00 0.00 0.00 55 1017.5
20260510154421 79 191 0.0 0.0 0.00 0.00 0.00 57 1017.5
20260510153908 78 142 0.0 0.0 0.00 0.00 0.00 58 1017.5
20260510153401 78 141 0.0 0.0 0.00 0.00 0.00 57 1017.5
20260510152848 77 99 0.0 0.0 0.00 0.00 0.00 61 1017.5
20260510152342 76 190 0.0 0.0 0.00 0.00 0.00 61 1017.5
20260510151823 76 178 0.0 0.0 0.00 0.00 0.00 61 1017.5
20260510151310 75 194 0.0 0.0 0.00 0.00 0.00 63 1017.5
20260510150753 75 212 0.0 0.0 0.00 0.00 0.00 65 1017.4
20260510150246 74 209 0.0 0.0 0.00 0.00 0.00 66 1017.3
20260510145729 73 208 0.0 0.0 0.00 0.00 0.00 69 1017.3
20260510145214 72 210 0.0 0.0 0.00 0.00 0.00 68 1017.3
20260510144657 71 218 0.0 0.0 0.00 0.00 0.00 70 1017.4
20260510144152 71 221 0.0 0.0 0.00 0.00 0.00 71 1017.3
20260510143630 70 210 0.0 0.0 0.00 0.00 0.00 71 1017.3
20260510143134 70 240 0.0 0.0 0.00 0.00 0.00 73 1017.3
20260510142617 69 240 0.0 0.0 0.00 0.00 0.00 74 1017.4
20260510142115 68 240 0.0 0.0 0.00 0.00 0.00 74 1017.3
20260510141558 68 136 0.0 0.0 0.00 0.00 0.00 74 1017.3
20260510141102 68 134 0.0 0.0 0.00 0.00 0.00 77 1017.2
20260510140608 67 134 0.0 0.0 0.00 0.00 0.00 78 1017.2
20260510140113 66 231 0.0 0.0 0.00 0.00 0.00 79 1017.3
20260510135559 65 201 0.0 0.0 0.00 0.00 0.00 80 1017.4
20260510135046 65 201 0.0 0.0 0.00 0.00 0.00 80 1017.4
20260510134533 65 201 0.0 0.0 0.00 0.00 0.00 80 1017.4
20260510134027 64 201 0.0 0.0 0.00 0.00 0.00 81 1017.5
20260510133527 64 201 0.0 0.0 0.00 0.00 0.00 80 1017.5
20260510133027 64 162 0.0 0.0 0.00 0.00 0.00 79 1017.5
20260510132532 64 75 0.0 0.0 0.00 0.00 0.00 80 1017.5
20260510132023 64 75 0.0 0.0 0.00 0.00 0.00 81 1017.5
20260510131529 63 75 0.0 0.0 0.00 0.00 0.00 83 1017.4
20260510131030 61 75 0.0 0.0 0.00 0.00 0.00 84 1017.4
20260510130526 60 75 0.0 0.0 0.00 0.00 0.00 87 1017.4
20260510130024 59 75 0.0 0.0 0.00 0.00 0.00 88 1017.4
20260510125504 58 75 0.0 0.0 0.00 0.00 0.00 89 1017.3
20260510124952 57 75 0.0 0.0 0.00 0.00 0.00 89 1017.2
20260510124451 57 75 0.0 0.0 0.00 0.00 0.00 90 1017.1
20260510123935 56 75 0.0 0.0 0.00 0.00 0.00 91 1017.1
20260510123431 56 74 0.0 0.0 0.00 0.00 0.00 91 1017.1
20260510122926 56 74 0.0 0.0 0.00 0.00 0.00 91 1017.1
20260510122419 56 74 0.0 0.0 0.00 0.00 0.00 92 1017.0
20260510121915 55 74 0.0 0.0 0.00 0.00 0.00 93 1017.0
20260510121418 55 74 0.0 0.0 0.00 0.00 0.00 93 1016.9
20260510120901 54 73 0.0 0.0 0.00 0.00 0.00 93 1016.9
20260510120408 54 73 0.0 0.0 0.00 0.00 0.00 93 1016.8
20260510115904 54 72 0.0 0.0 0.00 0.00 0.00 94 1016.7
20260510115348 53 72 0.0 0.0 0.00 0.00 0.00 94 1016.6
20260510114839 53 72 0.0 0.0 0.00 0.00 0.00 94 1016.7
20260510114335 52 72 0.0 0.0 0.00 0.00 0.00 94 1016.5
20260510113824 52 72 0.0 0.0 0.00 0.00 0.00 94 1016.4
20260510113326 52 72 0.0 0.0 0.00 0.00 0.00 94 1016.3
20260510112834 52 72 0.0 0.0 0.00 0.00 0.00 94 1016.4
20260510112326 52 117 0.0 0.0 0.00 0.00 0.00 94 1016.2
20260510111816 52 117 0.0 0.0 0.00 0.00 0.00 94 1016.3
20260510041545 58 89 0.0 0.0 0.00 0.00 0.00 84 1013.5
20260510041038 58 89 0.0 0.0 0.00 0.00 0.00 84 1013.5
20260510040541 58 89 0.0 0.0 0.00 0.00 0.00 84 1013.6
20260510040030 58 89 0.0 0.0 0.00 0.00 0.00 83 1013.6
20260510035536 59 89 0.0 0.0 0.00 0.00 0.00 82 1013.6
20260510035017 59 89 0.0 0.0 0.00 0.00 0.00 81 1013.6
20260510034508 59 89 0.0 0.0 0.00 0.00 0.00 81 1013.6
20260510034008 60 89 0.0 0.0 0.00 0.00 0.00 81 1013.6
20260510033505 60 89 0.0 0.0 0.00 0.00 0.00 79 1013.7
20260510032956 61 89 0.0 0.0 0.00 0.00 0.00 76 1013.6
20260510032449 61 89 0.0 0.0 0.00 0.00 0.00 75 1013.7
20260510031941 61 89 0.0 0.0 0.00 0.00 0.00 74 1013.6
20260510031425 62 89 0.0 0.0 0.00 0.00 0.00 73 1013.6
20260510030930 62 89 0.0 0.0 0.00 0.00 0.00 72 1013.7
20260510030436 62 89 0.0 0.0 0.00 0.00 0.00 72 1013.6
20260510025925 62 89 0.0 0.0 0.00 0.00 0.00 73 1013.6
20260510025423 62 89 0.0 0.0 0.00 0.00 0.00 72 1013.6
20260510024926 62 89 0.0 0.0 0.00 0.00 0.00 72 1013.5
20260510024407 62 89 0.0 0.0 0.00 0.00 0.00 72 1013.5
20260510023845 62 89 0.0 0.0 0.00 0.00 0.00 72 1013.5
20260510023338 63 89 0.0 0.0 0.00 0.00 0.00 71 1013.3
20260510022818 63 89 0.0 0.0 0.00 0.00 0.00 71 1013.3
20260510022306 63 89 0.0 0.0 0.00 0.00 0.00 70 1013.2
20260510021801 63 89 0.0 0.0 0.00 0.00 0.00 70 1013.2
20260510021258 63 89 0.0 0.0 0.00 0.00 0.00 69 1013.1
20260510020738 64 89 0.0 0.0 0.00 0.00 0.00 69 1013.1
20260510020244 64 89 0.0 0.0 0.00 0.00 0.00 68 1013.0
20260510015723 64 89 0.0 0.0 0.00 0.00 0.00 67 1012.9
20260510015205 64 89 0.0 0.0 0.00 0.00 0.00 67 1012.8
20260510014704 64 89 0.0 0.0 0.00 0.00 0.00 67 1012.7
20260510014210 65 89 0.0 0.0 0.00 0.00 0.00 66 1012.7
20260510013649 65 89 0.0 0.0 0.00 0.00 0.00 65 1012.5
20260510013131 65 89 0.0 0.0 0.00 0.00 0.00 65 1012.4
20260510012623 66 89 0.0 0.0 0.00 0.00 0.00 63 1012.4
20260510012112 66 89 0.0 0.0 0.00 0.00 0.00 63 1012.3
20260510011556 66 89 0.0 0.0 0.00 0.00 0.00 63 1012.2
20260510011044 67 89 0.0 0.0 0.00 0.00 0.00 61 1012.2
20260510010549 67 89 0.0 0.0 0.00 0.00 0.00 61 1012.2
20260510010042 67 89 0.0 0.0 0.00 0.00 0.00 61 1012.1
20260510005548 68 89 0.0 0.0 0.00 0.00 0.00 60 1012.1
20260510005039 68 89 0.0 0.0 0.00 0.00 0.00 58 1012.0
20260510004523 69 89 0.0 0.0 0.00 0.00 0.00 58 1012.0
20260510004010 69 89 0.0 0.0 0.00 0.00 0.00 56 1012.0
20260510003502 70 89 0.0 0.0 0.00 0.00 0.00 55 1011.9
20260510002948 71 89 0.0 0.0 0.00 0.00 0.00 55 1011.8
20260510002438 71 89 0.0 0.0 0.00 0.00 0.00 53 1011.8
20260510001920 72 88 0.0 0.0 0.00 0.00 0.00 52 1011.7
20260510001409 72 88 0.0 0.0 0.00 0.00 0.00 52 1011.7
20260510000913 73 88 0.0 0.0 0.00 0.00 0.00 50 1011.6
20260510000413 74 88 0.0 0.0 0.00 0.00 0.00 48 1011.6
20260509235903 75 88 0.0 0.0 0.00 0.00 0.00 48 1011.5
20260509235343 76 88 0.0 0.0 0.00 0.00 0.00 46 1011.5
20260509234851 77 88 0.0 0.0 0.00 0.00 0.00 44 1011.5
20260509234350 77 88 0.0 0.0 0.00 0.00 0.00 44 1011.4
20260509233833 79 88 0.0 0.0 0.00 0.00 0.00 41 1011.3
20260509233340 81 88 0.0 0.0 0.00 0.00 0.00 40 1011.3
20260509232837 82 88 0.0 0.0 0.00 0.00 0.00 41 1011.3
20260509232341 81 88 0.0 0.0 0.00 0.00 0.00 40 1011.4
20260509231847 81 87 0.0 0.0 0.00 0.00 0.00 41 1011.4
20260509231351 81 86 0.0 0.0 0.00 0.00 0.00 41 1011.4
20260509230833 80 86 0.0 0.0 0.00 0.00 0.00 42 1011.4
20260509230321 79 86 0.0 0.0 0.00 0.00 0.00 42 1011.4
20260509225815 80 86 0.0 0.0 0.00 0.00 0.00 40 1011.4
20260509225315 80 86 0.0 0.0 0.00 0.00 0.00 37 1011.3
20260509224803 81 86 0.0 0.0 0.00 0.00 0.00 35 1011.3
20260509224307 82 86 0.0 0.0 0.00 0.00 0.00 35 1011.3
20260509223750 83 86 0.0 0.0 0.00 0.00 0.00 34 1011.3
20260509223246 84 84 0.0 0.0 0.00 0.00 0.00 36 1011.3
20260509222725 83 84 0.0 0.0 0.00 0.00 0.00 34 1011.3
20260509222205 82 84 0.0 0.0 0.00 0.00 0.00 35 1011.3
20260509221701 81 84 0.0 0.0 0.00 0.00 0.00 37 1011.3
20260509221202 81 99 0.0 0.0 0.00 0.00 0.00 36 1011.3
20260509220649 82 84 0.0 0.9 0.00 0.00 0.00 37 1011.3
20260509220127 82 86 0.0 0.0 0.00 0.00 0.00 36 1011.3
20260509215631 82 43 0.0 0.0 0.00 0.00 0.00 36 1011.2
20260509215112 82 73 0.0 0.0 0.00 0.00 0.00 33 1011.2
20260509214609 82 214 0.0 0.0 0.00 0.00 0.00 33 1011.3
20260509214058 82 53 0.0 0.0 0.00 0.00 0.00 37 1011.2
20260509213537 82 56 0.0 0.0 0.00 0.00 0.00 37 1011.1
20260509213038 82 127 0.0 0.0 0.00 0.00 0.00 36 1011.1
20260509212531 82 87 0.0 0.0 0.00 0.00 0.00 39 1011.1
20260509212023 81 143 0.0 0.9 0.00 0.00 0.00 36 1011.0
20260509211523 81 40 0.0 0.0 0.00 0.00 0.00 38 1010.9
20260509211003 81 269 0.0 0.9 0.00 0.00 0.00 35 1011.0
20260509210505 81 206 0.0 0.9 0.00 0.00 0.00 34 1010.9
20260509205954 81 23 0.0 0.0 0.00 0.00 0.00 38 1011.1
20260509205452 81 244 0.0 2.6 0.00 0.00 0.00 37 1011.1